TimeMDT,TemperatureF,Dew PointF,Humidity,Sea Level PressureIn,VisibilityMPH,Wind Direction,Wind SpeedMPH,Gust SpeedMPH,PrecipitationIn,Events,Conditions,WindDirDegrees,DateUTC
12:40 AM,14.0,10.4,86,29.74,9.0,South,3.5,-,N/A,,Scattered Clouds,170,2013-10-30 06:40:00
12:48 AM,14.0,10.4,86,29.75,7.0,Calm,Calm,-,N/A,,Mostly Cloudy,0,2013-10-30 06:48:00
12:54 AM,14.0,10.4,86,29.74,1.8,Calm,Calm,-,N/A,,Mostly Cloudy,0,2013-10-30 06:54:00
12:56 AM,14.0,10.9,88,29.90,1.2,Calm,Calm,-,N/A,,Mostly Cloudy,0,2013-10-30 06:56:00
1:04 AM,15.8,12.2,86,29.74,0.8,South,3.5,-,N/A,,Mist,180,2013-10-30 07:04:00
1:43 AM,15.8,12.2,86,29.74,0.2,Calm,Calm,-,N/A,Fog,Light Freezing Fog,0,2013-10-30 07:43:00
1:54 AM,15.8,12.2,86,29.74,0.5,Calm,Calm,-,N/A,Fog,Light Freezing Fog,0,2013-10-30 07:54:00
1:56 AM,15.1,10.9,84,29.89,0.5,Calm,Calm,-,N/A,Fog,Light Freezing Fog,0,2013-10-30 07:56:00
2:56 AM,12.9,10.0,88,29.89,0.5,Calm,Calm,-,N/A,Fog,Light Freezing Fog,0,2013-10-30 08:56:00
3:08 AM,14.0,10.4,86,29.74,1.2,Calm,Calm,-,N/A,,Scattered Clouds,0,2013-10-30 09:08:00
3:11 AM,15.8,10.4,79,29.74,3.0,Calm,Calm,-,N/A,,Scattered Clouds,0,2013-10-30 09:11:00
3:56 AM,16.0,12.0,84,29.89,10.0,Calm,Calm,-,N/A,,Clear,0,2013-10-30 09:56:00
4:56 AM,12.0,8.1,84,29.89,8.0,Calm,Calm,-,N/A,,Clear,0,2013-10-30 10:56:00
5:56 AM,12.9,8.1,81,29.90,10.0,Calm,Calm,-,N/A,,Clear,0,2013-10-30 11:56:00
6:56 AM,23.0,18.0,81,29.88,10.0,West,8.1,-,N/A,,Clear,270,2013-10-30 12:56:00
7:56 AM,30.0,23.0,75,29.86,10.0,West,13.8,-,N/A,,Clear,280,2013-10-30 13:56:00
8:56 AM,30.0,23.0,75,29.88,10.0,WNW,13.8,-,N/A,,Clear,290,2013-10-30 14:56:00
9:56 AM,-9999,-9999,N/A,29.77,-9999.0,North,-9999.0,-,N/A,,Unknown,0,2013-10-30 15:56:00
10:56 AM,-9999,-9999,N/A,29.76,-9999.0,North,-9999.0,-,N/A,,Unknown,0,2013-10-30 16:56:00
11:56 AM,-9999,-9999,N/A,29.78,-9999.0,North,-9999.0,-,N/A,,Unknown,0,2013-10-30 17:56:00
12:56 PM,39.0,28.0,65,29.89,10.0,West,15.0,-,N/A,,Clear,270,2013-10-30 18:56:00
1:56 PM,41.0,30.0,65,29.88,10.0,West,13.8,-,N/A,,Clear,280,2013-10-30 19:56:00
3:56 PM,42.1,30.0,62,29.88,10.0,West,13.8,-,N/A,,Clear,270,2013-10-30 21:56:00
4:56 PM,42.1,28.9,60,29.90,10.0,West,18.4,-,N/A,,Clear,270,2013-10-30 22:56:00
5:56 PM,39.0,27.0,62,29.91,10.0,West,23.0,-,N/A,,Clear,260,2013-10-30 23:56:00
6:56 PM,37.9,26.1,62,29.88,10.0,West,19.6,-,N/A,,Clear,260,2013-10-31 00:56:00
7:56 PM,37.9,26.1,62,29.87,10.0,West,19.6,-,N/A,,Clear,260,2013-10-31 01:56:00
8:56 PM,39.0,26.1,60,29.86,10.0,West,18.4,25.3,N/A,,Overcast,260,2013-10-31 02:56:00
9:56 PM,39.0,27.0,62,29.78,10.0,West,20.7,-,N/A,,Mostly Cloudy,260,2013-10-31 03:56:00
10:56 PM,37.9,28.0,68,29.77,10.0,West,20.7,-,N/A,,Overcast,260,2013-10-31 04:56:00
11:56 PM,37.9,27.0,65,29.75,10.0,West,25.3,35.7,N/A,,Clear,260,2013-10-31 05:56:00